• In Russia
  • List of Countries
  • For 7 days
  • Water Temperature
  • Satellite Maps
  • Weather Map
  • Weather Widgets
  • user-avatar
    Login

    Hourly Weather Matyty

    Today, 20 February, Wednesday

    Time Temperature Precipitation Wind Pressure Humidity
    00:00 +3°C° 0 mm 5 mps 748 mmHg 85%
    01:00 +3°C° 0 mm 4 mps 748 mmHg 86%
    02:00 +2°C° 0 mm 5 mps 748 mmHg 85%
    03:00 +2°C° 0 mm 5 mps 748 mmHg 83%
    04:00 +2°C° 0 mm 6 mps 748 mmHg 82%
    05:00 +2°C° 0.1 mm 6 mps 748 mmHg 82%
    06:00 +2°C° 0.1 mm 6 mps 748 mmHg 82%
    07:00 +2°C° 0.1 mm 6 mps 748 mmHg 82%
    08:00 +2°C° 0.1 mm 6 mps 749 mmHg 80%
    09:00 +2°C° 0.1 mm 6 mps 749 mmHg 78%
    10:00 +2°C° 0.1 mm 7 mps 750 mmHg 76%
    11:00 +3°C° 0 mm 7 mps 750 mmHg 73%
    12:00 +3°C° 0 mm 7 mps 750 mmHg 70%
    13:00 +4°C° 0 mm 7 mps 751 mmHg 67%
    14:00 +4°C° 0 mm 6 mps 751 mmHg 69%
    15:00 +3°C° 0 mm 6 mps 752 mmHg 72%
    16:00 +3°C° 0 mm 6 mps 752 mmHg 74%
    17:00 +3°C° 0 mm 5 mps 753 mmHg 77%
    18:00 +3°C° 0 mm 4 mps 753 mmHg 79%
    19:00 +3°C° 0 mm 4 mps 754 mmHg 82%
    20:00 +2°C° 0 mm 3 mps 754 mmHg 83%
    21:00 +3°C° 0 mm 2 mps 755 mmHg 84%
    22:00 +2°C° 0 mm 2 mps 755 mmHg 85%
    23:00 +3°C° 0 mm 1 mps 755 mmHg 84%

    Tomorrow, 21 February, Thursday

    Time Temperature Precipitation Wind Pressure Humidity
    00:00 +3°C° 0 mm 1 mps 755 mmHg 84%
    01:00 +3°C° 0 mm 1 mps 756 mmHg 83%
    02:00 +3°C° 0 mm 1 mps 756 mmHg 85%
    03:00 +3°C° 0 mm 1 mps 755 mmHg 87%
    04:00 +3°C° 0 mm 1 mps 755 mmHg 89%
    05:00 +3°C° 0.2 mm 1 mps 755 mmHg 91%
    06:00 +3°C° 0.2 mm 1 mps 755 mmHg 93%
    07:00 +3°C° 0.2 mm 1 mps 755 mmHg 95%
    08:00 +3°C° 0.6 mm 2 mps 755 mmHg 95%
    09:00 +3°C° 0.6 mm 2 mps 755 mmHg 95%
    10:00 +2°C° 0.6 mm 3 mps 754 mmHg 94%
    11:00 +2°C° 1.4 mm 3 mps 754 mmHg 95%
    12:00 +3°C° 1.4 mm 3 mps 754 mmHg 95%
    13:00 +4°C° 1.4 mm 2 mps 754 mmHg 96%
    14:00 +3°C° 1 mm 3 mps 753 mmHg 96%
    15:00 +3°C° 1 mm 3 mps 753 mmHg 96%
    16:00 +3°C° 1 mm 3 mps 752 mmHg 96%
    17:00 +3°C° 0.6 mm 3 mps 752 mmHg 96%
    18:00 +4°C° 0.6 mm 2 mps 752 mmHg 96%
    19:00 +4°C° 0.6 mm 2 mps 752 mmHg 97%
    20:00 +4°C° 0.4 mm 2 mps 752 mmHg 96%
    21:00 +2°C° 0.4 mm 3 mps 753 mmHg 96%
    22:00 +2°C° 0.4 mm 3 mps 753 mmHg 95%
    23:00 0°C° 0.1 mm 4 mps 754 mmHg 92%

    Day after tomorrow, 22 February, Friday

    Time Temperature Precipitation Wind Pressure Humidity
    00:00 -1°C° 0.1 mm 5 mps 755 mmHg 89%
    01:00 -3°C° 0.1 mm 6 mps 755 mmHg 85%
    02:00 -4°C° 0 mm 6 mps 756 mmHg 80%
    03:00 -5°C° 0 mm 6 mps 757 mmHg 76%
    04:00 -5°C° 0 mm 6 mps 758 mmHg 71%
    05:00 -6°C° 0 mm 6 mps 760 mmHg 70%
    06:00 -6°C° 0 mm 6 mps 761 mmHg 70%
    07:00 -6°C° 0 mm 6 mps 762 mmHg 69%
    08:00 -6°C° 0 mm 5 mps 763 mmHg 65%
    09:00 -6°C° 0 mm 5 mps 764 mmHg 60%
    10:00 -6°C° 0 mm 5 mps 765 mmHg 56%
    11:00 -5°C° 0 mm 5 mps 766 mmHg 54%
    12:00 -5°C° 0 mm 5 mps 767 mmHg 53%
    13:00 -4°C° 0 mm 4 mps 767 mmHg 51%
    14:00 -4°C° 0 mm 4 mps 768 mmHg 51%
    15:00 -4°C° 0 mm 4 mps 768 mmHg 51%
    16:00 -5°C° 0 mm 4 mps 768 mmHg 52%
    17:00 -5°C° 0 mm 4 mps 769 mmHg 52%
    18:00 -5°C° 0 mm 3 mps 769 mmHg 53%
    19:00 -6°C° 0 mm 3 mps 770 mmHg 53%
    20:00 -6°C° 0 mm 3 mps 770 mmHg 50%
    21:00 -6°C° 0 mm 3 mps 771 mmHg 48%
    22:00 -6°C° 0 mm 3 mps 771 mmHg 46%
    23:00 -6°C° 0 mm 3 mps 771 mmHg 47%

    23 February, Saturday

    Time Temperature Precipitation Wind Pressure Humidity
    00:00 -5°C° 0 mm 2 mps 771 mmHg 49%
    01:00 -5°C° 0 mm 2 mps 772 mmHg 50%
    02:00 -5°C° 0 mm 2 mps 771 mmHg 51%
    03:00 -4°C° 0 mm 1 mps 771 mmHg 52%
    04:00 -4°C° 0 mm 1 mps 771 mmHg 53%
    05:00 -4°C° 0 mm 1 mps 771 mmHg 54%
    06:00 -4°C° 0 mm 1 mps 772 mmHg 55%
    07:00 -4°C° 0 mm 1 mps 772 mmHg 55%
    08:00 -3°C° 0 mm 1 mps 772 mmHg 50%
    09:00 -2°C° 0 mm 1 mps 772 mmHg 44%
    10:00 -2°C° 0 mm 0 mps 772 mmHg 39%
    11:00 -2°C° 0 mm 0 mps 772 mmHg 37%
    12:00 0°C° 0 mm 1 mps 772 mmHg 34%
    13:00 +1°C° 0 mm 1 mps 772 mmHg 32%
    14:00 +1°C° 0 mm 1 mps 772 mmHg 33%
    15:00 +1°C° 0 mm 1 mps 771 mmHg 34%
    16:00 +1°C° 0 mm 1 mps 771 mmHg 35%
    17:00 0°C° 0 mm 1 mps 771 mmHg 38%
    18:00 -2°C° 0 mm 2 mps 770 mmHg 40%
    19:00 -2°C° 0 mm 2 mps 770 mmHg 43%
    20:00 -2°C° 0 mm 2 mps 770 mmHg 44%
    21:00 -2°C° 0 mm 2 mps 770 mmHg 45%
    22:00 -2°C° 0 mm 2 mps 770 mmHg 46%
    23:00 -2°C° 0 mm 2 mps 769 mmHg 48%

    24 February, Sunday

    Time Temperature Precipitation Wind Pressure Humidity
    00:00 -2°C° 0 mm 2 mps 769 mmHg 50%
    01:00 -2°C° 0 mm 2 mps 769 mmHg 52%
    02:00 -2°C° 0 mm 2 mps 769 mmHg 54%
    03:00 -2°C° 0 mm 2 mps 768 mmHg 56%
    04:00 -3°C° 0 mm 2 mps 768 mmHg 58%
    05:00 -3°C° 0 mm 2 mps 768 mmHg 59%
    06:00 -3°C° 0 mm 2 mps 768 mmHg 61%
    07:00 -3°C° 0 mm 2 mps 768 mmHg 62%
    08:00 -2°C° 0 mm 2 mps 768 mmHg 61%
    09:00 -1°C° 0 mm 2 mps 768 mmHg 60%
    10:00 +2°C° 0 mm 2 mps 768 mmHg 59%
    11:00 +3°C° 0 mm 2 mps 768 mmHg 60%
    12:00 +3°C° 0 mm 2 mps 768 mmHg 61%
    13:00 +4°C° 0 mm 2 mps 767 mmHg 62%
    14:00 +4°C° 0 mm 2 mps 767 mmHg 66%
    15:00 +4°C° 0 mm 2 mps 767 mmHg 70%
    16:00 +4°C° 0 mm 1 mps 767 mmHg 74%
    17:00 +3°C° 0 mm 1 mps 767 mmHg 77%
    18:00 +2°C° 0 mm 1 mps 767 mmHg 81%
    19:00 +1°C° 0 mm 1 mps 767 mmHg 84%
    20:00 -1°C° 0 mm 2 mps 767 mmHg 84%
    21:00 -1°C° 0 mm 2 mps 767 mmHg 83%
    22:00 +1°C° 0 mm 2 mps 767 mmHg 83%
    23:00 -1°C° 0 mm 2 mps 766 mmHg 83%

    25 February, Monday

    Time Temperature Precipitation Wind Pressure Humidity
    00:00 -1°C° 0 mm 2 mps 766 mmHg 83%
    01:00 -1°C° 0 mm 2 mps 766 mmHg 83%
    02:00 -1°C° 0 mm 2 mps 766 mmHg 84%
    03:00 -1°C° 0 mm 2 mps 766 mmHg 85%
    04:00 -1°C° 0 mm 2 mps 766 mmHg 86%
    05:00 -1°C° 0 mm 2 mps 766 mmHg 89%
    06:00 -1°C° 0 mm 2 mps 766 mmHg 91%
    07:00 -1°C° 0 mm 3 mps 766 mmHg 94%
    08:00 +1°C° 0 mm 3 mps 766 mmHg 90%
    09:00 +1°C° 0 mm 4 mps 766 mmHg 87%
    10:00 +3°C° 0 mm 5 mps 767 mmHg 83%
    11:00 +3°C° 0 mm 5 mps 767 mmHg 77%
    12:00 +5°C° 0 mm 5 mps 767 mmHg 72%
    13:00 +6°C° 0 mm 5 mps 767 mmHg 66%
    14:00 +5°C° 0 mm 5 mps 767 mmHg 69%
    15:00 +3°C° 0 mm 5 mps 766 mmHg 73%
    16:00 +4°C° 0 mm 4 mps 766 mmHg 76%
    17:00 +3°C° 0 mm 4 mps 766 mmHg 80%
    18:00 +1°C° 0 mm 4 mps 767 mmHg 84%
    19:00 +1°C° 0 mm 3 mps 767 mmHg 89%
    20:00 0°C° 0 mm 3 mps 767 mmHg 89%
    21:00 0°C° 0 mm 3 mps 767 mmHg 90%
    22:00 0°C° 0 mm 3 mps 767 mmHg 91%
    23:00 0°C° 0 mm 3 mps 766 mmHg 90%
    Show more